This is the latest recevied weather packets stored in our database for station/object OE-11349. If no packets are shown the sender has not sent any weather packets the latest 10 day(s).
| Time | Temp. | Humidity | Pressure | Rain* | Wind** | Luminosity | Snow |
|---|---|---|---|---|---|---|---|
| 1787923509 | 24.44° C | 46% | 852.5 hPa | - | - | 743 W/m² | - |
| 1787922680 | 24.44° C | 46% | 852.5 hPa | - | - | 785 W/m² | - |
| 1787922308 | 24.44° C | 46% | 852.5 hPa | - | - | 791 W/m² | - |
| 1787921709 | 24.44° C | 46% | 852.5 hPa | - | - | 619 W/m² | - |
| 1787920881 | 24.44° C | 46% | 852.5 hPa | - | - | 743 W/m² | - |
| 1787920509 | 24.44° C | 47% | 852.5 hPa | - | - | 599 W/m² | - |
| 1787919909 | 23.33° C | 48% | 852.5 hPa | - | - | 434 W/m² | - |
| 1787919082 | 23.33° C | 48% | 852.5 hPa | - | - | 523 W/m² | - |
| 1787918708 | 23.33° C | 47% | 852.5 hPa | - | - | 489 W/m² | - |
| 1787918108 | 23.33° C | 47% | 852.5 hPa | - | - | 475 W/m² | - |
| 1787917281 | 23.89° C | 47% | 852.6 hPa | - | - | 709 W/m² | - |
| 1787916909 | 23.89° C | 47% | 852.6 hPa | - | - | 771 W/m² | - |
| 1787916309 | 23.89° C | 46% | 852.8 hPa | - | - | 826 W/m² | - |
| 1787915481 | 23.33° C | 47% | 852.8 hPa | - | - | 853 W/m² | - |
| 1787915109 | 23.33° C | 48% | 852.8 hPa | - | - | 853 W/m² | - |
| 1787914509 | 23.33° C | 49% | 852.8 hPa | - | - | 778 W/m² | - |
| 1787913682 | 23.33° C | 50% | 852.6 hPa | - | - | 757 W/m² | - |
| 1787913309 | 22.78° C | 50% | 852.7 hPa | - | - | 743 W/m² | - |
| 1787912709 | 22.22° C | 52% | 852.9 hPa | - | - | 729 W/m² | - |
| 1787911882 | 22.22° C | 54% | 853 hPa | - | - | 723 W/m² | - |
| 1787911509 | 21.67° C | 53% | 853.1 hPa | - | - | 709 W/m² | - |
| 1787910908 | 21.67° C | 56% | 853.1 hPa | - | - | 702 W/m² | - |
| 1787910082 | 21.67° C | 57% | 853.1 hPa | - | - | 688 W/m² | - |
| 1787909709 | 21.11° C | 58% | 853.1 hPa | - | - | 606 W/m² | - |
| 1787909109 | 20.56° C | 62% | 853.2 hPa | - | - | 640 W/m² | - |
* Rain since midnight (hover to see other rain measurements)
** Current wind speed in m/s (hover to see current wind gust speed)